Hourly Weather Ordino

Today, 10 August, Monday

Time Temperature Precipitation Wind Pressure Humidity
00:00 +18°C° 0 mm 1 mps 634 mmHg 64%
01:00 +18°C° 0 mm 1 mps 634 mmHg 65%
02:00 +18°C° 0 mm 1 mps 634 mmHg 65%
03:00 +16°C° 0 mm 1 mps 634 mmHg 66%
04:00 +18°C° 0.1 mm 1 mps 634 mmHg 67%
05:00 +18°C° 0.1 mm 1 mps 634 mmHg 69%
06:00 +17°C° 0 mm 2 mps 634 mmHg 75%
07:00 +20°C° 0 mm 2 mps 635 mmHg 65%
08:00 +23°C° 0 mm 1 mps 636 mmHg 55%
09:00 +26°C° 0 mm 1 mps 637 mmHg 45%
10:00 +27°C° 0 mm 2 mps 637 mmHg 42%
11:00 +28°C° 0 mm 2 mps 637 mmHg 39%
12:00 +28°C° 0 mm 2 mps 638 mmHg 36%
13:00 +28°C° 0.1 mm 2 mps 637 mmHg 39%
14:00 +27°C° 0.1 mm 2 mps 636 mmHg 41%
15:00 +26°C° 0.1 mm 2 mps 636 mmHg 43%
16:00 +25°C° 0.1 mm 2 mps 636 mmHg 47%
17:00 +24°C° 0.1 mm 2 mps 635 mmHg 52%
18:00 +23°C° 0.1 mm 2 mps 635 mmHg 56%
19:00 +21°C° 0 mm 2 mps 635 mmHg 59%
20:00 +19°C° 0 mm 2 mps 635 mmHg 62%
21:00 +18°C° 0 mm 2 mps 635 mmHg 64%
22:00 +17°C° 0 mm 2 mps 635 mmHg 62%
23:00 +18°C° 0 mm 1 mps 635 mmHg 60%

Tomorrow, 11 August, Tuesday

Time Temperature Precipitation Wind Pressure Humidity
00:00 +18°C° 0 mm 1 mps 635 mmHg 58%
01:00 +18°C° 0 mm 1 mps 635 mmHg 58%
02:00 +18°C° 0 mm 1 mps 634 mmHg 58%
03:00 +16°C° 0 mm 1 mps 634 mmHg 58%
04:00 +18°C° 0 mm 1 mps 634 mmHg 59%
05:00 +18°C° 0 mm 1 mps 634 mmHg 61%
06:00 +18°C° 0 mm 1 mps 635 mmHg 62%
07:00 +21°C° 0 mm 1 mps 636 mmHg 53%
08:00 +23°C° 0 mm 1 mps 636 mmHg 45%
09:00 +26°C° 0 mm 2 mps 637 mmHg 36%
10:00 +27°C° 0 mm 2 mps 638 mmHg 35%
11:00 +27°C° 0 mm 2 mps 638 mmHg 33%
12:00 +28°C° 0 mm 2 mps 638 mmHg 31%
13:00 +28°C° 0 mm 3 mps 638 mmHg 32%
14:00 +28°C° 0 mm 3 mps 637 mmHg 32%
15:00 +28°C° 0 mm 3 mps 637 mmHg 33%
16:00 +26°C° 0 mm 2 mps 637 mmHg 41%
17:00 +25°C° 0 mm 2 mps 636 mmHg 50%
18:00 +23°C° 0 mm 1 mps 636 mmHg 59%
19:00 +21°C° 0 mm 1 mps 635 mmHg 62%
20:00 +20°C° 0 mm 1 mps 635 mmHg 65%
21:00 +18°C° 0 mm 1 mps 635 mmHg 68%
22:00 +18°C° 0 mm 1 mps 635 mmHg 66%
23:00 +18°C° 0 mm 1 mps 634 mmHg 65%

Day after tomorrow, 12 August, Wednesday

Time Temperature Precipitation Wind Pressure Humidity
00:00 +18°C° 0 mm 1 mps 634 mmHg 63%
01:00 +16°C° 0 mm 1 mps 634 mmHg 65%
02:00 +16°C° 0 mm 2 mps 634 mmHg 68%
03:00 +16°C° 0 mm 2 mps 634 mmHg 71%
04:00 +16°C° 0 mm 2 mps 634 mmHg 70%
05:00 +16°C° 0 mm 2 mps 634 mmHg 69%
06:00 +16°C° 0 mm 2 mps 634 mmHg 68%
07:00 +18°C° 0 mm 2 mps 635 mmHg 59%
08:00 +20°C° 0 mm 2 mps 635 mmHg 50%
09:00 +23°C° 0 mm 2 mps 636 mmHg 41%
10:00 +23°C° 0 mm 2 mps 636 mmHg 43%
11:00 +22°C° 0 mm 3 mps 636 mmHg 46%
12:00 +24°C° 0 mm 3 mps 636 mmHg 48%
13:00 +22°C° 0.2 mm 3 mps 635 mmHg 51%
14:00 +22°C° 0.2 mm 3 mps 635 mmHg 54%
15:00 +22°C° 0.2 mm 4 mps 634 mmHg 57%
16:00 +20°C° 0.9 mm 3 mps 634 mmHg 65%
17:00 +19°C° 0.9 mm 2 mps 634 mmHg 72%
18:00 +18°C° 0.9 mm 1 mps 634 mmHg 79%
19:00 +16°C° 0.7 mm 1 mps 634 mmHg 82%
20:00 +15°C° 0.7 mm 1 mps 634 mmHg 85%
21:00 +14°C° 0.7 mm 1 mps 634 mmHg 88%
22:00 +14°C° 0 mm 1 mps 634 mmHg 88%
23:00 +14°C° 0 mm 1 mps 633 mmHg 87%

13 August, Thursday

Time Temperature Precipitation Wind Pressure Humidity
00:00 +14°C° 0 mm 1 mps 633 mmHg 86%
01:00 +13°C° 0 mm 1 mps 633 mmHg 85%
02:00 +13°C° 0 mm 1 mps 633 mmHg 83%
03:00 +13°C° 0 mm 1 mps 633 mmHg 82%
04:00 +13°C° 0 mm 1 mps 633 mmHg 82%
05:00 +14°C° 0 mm 1 mps 634 mmHg 82%
06:00 +14°C° 0 mm 1 mps 634 mmHg 82%
07:00 +16°C° 0 mm 1 mps 635 mmHg 73%
08:00 +19°C° 0 mm 1 mps 636 mmHg 63%
09:00 +21°C° 0 mm 2 mps 637 mmHg 54%
10:00 +21°C° 0 mm 2 mps 637 mmHg 49%
11:00 +23°C° 0 mm 2 mps 637 mmHg 45%
12:00 +24°C° 0 mm 3 mps 637 mmHg 41%
13:00 +24°C° 0.1 mm 3 mps 637 mmHg 41%
14:00 +24°C° 0.1 mm 3 mps 637 mmHg 42%
15:00 +24°C° 0.1 mm 3 mps 637 mmHg 42%
16:00 +21°C° 0.2 mm 2 mps 636 mmHg 51%
17:00 +20°C° 0.2 mm 2 mps 636 mmHg 60%
18:00 +19°C° 0.2 mm 1 mps 635 mmHg 69%
19:00 +18°C° 0 mm 1 mps 635 mmHg 74%
20:00 +16°C° 0 mm 1 mps 635 mmHg 79%
21:00 +14°C° 0 mm 1 mps 635 mmHg 84%
22:00 +14°C° 0 mm 1 mps 634 mmHg 82%
23:00 +13°C° 0 mm 1 mps 634 mmHg 80%

14 August, Friday

Time Temperature Precipitation Wind Pressure Humidity
00:00 +13°C° 0 mm 1 mps 634 mmHg 78%
01:00 +13°C° 0 mm 1 mps 634 mmHg 77%
02:00 +13°C° 0 mm 1 mps 634 mmHg 77%
03:00 +13°C° 0 mm 1 mps 634 mmHg 76%
04:00 +13°C° 0 mm 1 mps 634 mmHg 75%
05:00 +14°C° 0 mm 1 mps 634 mmHg 75%
06:00 +14°C° 0 mm 1 mps 634 mmHg 75%
07:00 +18°C° 0 mm 1 mps 635 mmHg 65%
08:00 +20°C° 0 mm 1 mps 636 mmHg 55%
09:00 +23°C° 0 mm 1 mps 637 mmHg 46%
10:00 +24°C° 0 mm 2 mps 637 mmHg 43%
11:00 +25°C° 0 mm 2 mps 637 mmHg 40%
12:00 +25°C° 0 mm 3 mps 637 mmHg 37%
13:00 +25°C° 0 mm 2 mps 637 mmHg 40%
14:00 +25°C° 0 mm 2 mps 636 mmHg 42%
15:00 +24°C° 0 mm 2 mps 636 mmHg 44%
16:00 +23°C° 0.1 mm 2 mps 635 mmHg 52%
17:00 +22°C° 0.1 mm 1 mps 635 mmHg 60%
18:00 +21°C° 0.1 mm 1 mps 634 mmHg 67%
19:00 +19°C° 0 mm 1 mps 634 mmHg 71%
20:00 +18°C° 0 mm 1 mps 633 mmHg 76%
21:00 +15°C° 0 mm 1 mps 633 mmHg 80%
22:00 +15°C° 0 mm 1 mps 633 mmHg 79%
23:00 +15°C° 0 mm 1 mps 633 mmHg 79%

15 August, Saturday

Time Temperature Precipitation Wind Pressure Humidity
00:00 +14°C° 0 mm 1 mps 633 mmHg 78%
01:00 +14°C° 0 mm 1 mps 633 mmHg 78%
02:00 +14°C° 0 mm 1 mps 633 mmHg 77%
03:00 +14°C° 0 mm 1 mps 632 mmHg 76%
04:00 +14°C° 0 mm 1 mps 633 mmHg 74%
05:00 +15°C° 0 mm 1 mps 633 mmHg 71%
06:00 +15°C° 0 mm 1 mps 633 mmHg 69%
07:00 +19°C° 0 mm 1 mps 634 mmHg 60%
08:00 +21°C° 0 mm 1 mps 635 mmHg 51%
09:00 +24°C° 0 mm 1 mps 636 mmHg 42%
10:00 +25°C° 0 mm 2 mps 636 mmHg 39%
11:00 +25°C° 0 mm 2 mps 636 mmHg 36%
12:00 +26°C° 0 mm 3 mps 636 mmHg 33%
13:00 +26°C° 0 mm 3 mps 636 mmHg 35%
14:00 +26°C° 0 mm 3 mps 635 mmHg 36%
15:00 +26°C° 0 mm 3 mps 635 mmHg 37%
16:00 +24°C° 0.2 mm 2 mps 635 mmHg 47%
17:00 +23°C° 0.2 mm 2 mps 634 mmHg 57%
18:00 +21°C° 0.2 mm 1 mps 633 mmHg 67%
19:00 +19°C° 0.1 mm 1 mps 633 mmHg 74%
20:00 +18°C° 0.1 mm 1 mps 633 mmHg 81%
21:00 +15°C° 0.1 mm 1 mps 633 mmHg 87%
22:00 +15°C° 0 mm 1 mps 633 mmHg 87%
23:00 +15°C° 0 mm 1 mps 633 mmHg 87%
Show more